Location: Le Domaine
(47.0333°N, 76.5361°W)
Time: 21:37:06
(UTC-05:00)

Transit 2A Rocket - Pass Details

Date: 22 November 2019
Orbit: 594 x 909 km, 66.7° (Epoch: 14 December)

Event Time Altitude Azimuth Distance (km) Brightness Sun altitude
Exits shadow 04:11:34 21° 40° (NE) 1,376 6.7 -31.6°
Drops below altitude 10° 04:14:58 10° 90° (E) 1,993 8.0 -31.0°
Sets 04:17:45 0° 107° (ESE) 2,938 9.0 -30.5°
